Date String (YYYY-MM-DD hh:mm:ss) UTC,Instrument flags,Ambient pressure (hPa),Sample flow (lpm),Bypass flow (lpm),Sample temperature (°C),Ambient temperature (°C),ASC tube jacket temperature (°C),LED temperature (°C),Box temperature (°C),Sample RH (%),Span deviation,Mass concentration (μg/m³),Mass concentration (μg/m³),Mass concentration (μg/m³)
DateTimeUTC,F1_M11,P_M11,Q1_M11,Q2_M11,T1_M11,T2_M11,T3_M11,T4_M11,T5_M11,U1_M11,ZSPAN_M11,X0_M11,X2_M11,X1_M11
2021-10-16 14:00:00,,0834.6,5.00,0.00,24.5,23.6,00.0,33.5,26.3,09.5,0000.0,0004.56,0002.57,0001.78
2021-10-16 14:01:00,,0834.7,5.00,0.00,24.5,23.7,00.0,33.5,26.3,09.5,0000.0,0004.53,0002.54,0001.80
2021-10-16 14:02:00,,0834.7,5.00,0.00,24.5,23.7,00.0,33.5,26.3,09.5,0000.0,0004.35,0002.50,0001.80
2021-10-16 14:03:00,,0834.7,5.00,0.00,24.5,23.7,00.0,33.5,26.4,09.5,0000.0,0004.33,0002.50,0001.80
2021-10-16 14:04:00,,0834.7,5.00,0.00,24.5,23.7,00.0,33.5,26.4,09.5,0000.0,0004.46,0002.51,0001.80
2021-10-16 14:05:00,,0834.7,4.99,0.00,24.5,23.7,00.0,33.5,26.4,09.6,0000.0,0004.44,0002.55,0001.81
2021-10-16 14:06:00,,0834.7,5.01,0.00,24.5,23.7,00.0,33.6,26.4,09.6,0000.0,0004.37,0002.56,0001.84
2021-10-16 14:07:00,,0834.7,4.99,0.00,24.5,23.7,00.0,33.6,26.4,09.8,0000.0,0004.41,0002.57,0001.86
2021-10-16 14:08:00,,0834.7,5.00,0.00,24.6,23.7,00.0,33.6,26.5,10.0,0000.0,0004.43,0002.58,0001.89
2021-10-16 14:09:00,,0834.7,5.00,0.00,24.6,23.8,00.0,33.6,26.5,10.1,0000.0,0004.38,0002.59,0001.93
2021-10-16 14:10:00,,0834.6,5.00,0.00,24.6,23.8,00.0,33.6,26.4,10.2,0000.0,0004.29,0002.59,0001.95
2021-10-16 14:11:00,,0834.7,5.00,0.00,24.6,23.8,00.0,33.6,26.5,10.2,0000.0,0004.20,0002.59,0001.99
2021-10-16 14:12:00,,0834.7,5.00,0.00,24.6,23.8,00.0,33.6,26.5,09.9,0000.0,0004.24,0002.63,0002.02
2021-10-16 14:13:00,,0834.7,5.00,0.00,24.6,23.8,00.0,33.6,26.5,10.0,0000.0,0004.82,0002.66,0002.03
2021-10-16 14:14:00,,0834.7,4.99,0.00,24.6,23.8,00.0,33.6,26.5,09.7,0000.0,0005.00,0002.68,0002.06
2021-10-16 14:15:00,,0834.7,5.01,0.00,24.6,23.8,00.0,33.6,26.5,09.8,0000.0,0004.97,0002.73,0002.11
2021-10-16 14:16:00,,0834.7,4.99,0.00,24.6,23.8,00.0,33.7,26.5,10.1,0000.0,0005.03,0002.74,0002.13
2021-10-16 14:17:00,,0834.7,5.00,0.00,24.6,23.8,00.0,33.7,26.6,09.8,0000.0,0005.04,0002.74,0002.15
2021-10-16 14:18:00,,0834.7,5.00,0.00,24.7,23.9,00.0,33.7,26.6,09.9,0000.0,0005.06,0002.77,0002.16
2021-10-16 14:19:00,,0834.8,5.00,0.00,24.7,23.9,00.0,33.7,26.6,10.5,0000.0,0005.18,0002.83,0002.17
2021-10-16 14:20:00,,0834.8,5.00,0.00,24.7,23.9,00.0,33.7,26.6,09.9,0000.0,0005.34,0002.89,0002.17
2021-10-16 14:21:00,,0834.8,5.00,0.00,24.7,23.9,00.0,33.7,26.6,10.0,0000.0,0005.69,0002.96,0002.19
2021-10-16 14:22:00,,0834.8,5.02,0.00,24.7,23.9,00.0,33.7,26.6,09.7,0000.0,0005.81,0002.99,0002.20
2021-10-16 14:23:00,,0834.8,4.99,0.00,24.7,23.9,00.0,33.7,26.6,09.9,0000.0,0005.88,0003.00,0002.20
2021-10-16 14:24:00,,0834.9,5.01,0.00,24.7,23.9,00.0,33.7,26.6,09.8,0000.0,0005.47,0003.02,0002.20
2021-10-16 14:25:00,,0834.9,5.00,0.00,24.8,24.0,00.0,33.8,26.7,10.1,0000.0,0005.25,0003.03,0002.20
2021-10-16 14:26:00,,0834.9,4.99,0.00,24.8,24.0,00.0,33.8,26.7,10.3,0000.0,0005.37,0003.05,0002.19
2021-10-16 14:27:00,,0834.9,5.01,0.00,24.8,24.0,00.0,33.8,26.7,10.1,0000.0,0005.23,0002.99,0002.16
2021-10-16 14:28:00,,0835.0,4.99,0.00,24.8,24.0,00.0,33.8,26.7,10.2,0000.0,0005.15,0002.97,0002.14
2021-10-16 14:29:00,,0834.9,5.01,0.00,24.8,24.0,00.0,33.8,26.7,10.7,0000.0,0005.42,0002.91,0002.12
2021-10-16 14:30:00,,0835.0,4.99,0.00,24.8,24.0,00.0,33.8,26.8,10.9,0000.0,0005.49,0002.88,0002.12
2021-10-16 14:31:00,,0835.0,5.02,0.00,24.8,24.0,00.0,33.8,26.8,10.8,0000.0,0005.50,0002.87,0002.11
2021-10-16 14:32:00,,0834.9,4.99,0.00,24.8,24.1,00.0,33.8,26.8,10.8,0000.0,0005.25,0002.81,0002.09
2021-10-16 14:33:00,,0835.0,5.01,0.00,24.9,24.1,00.0,33.8,26.8,10.7,0000.0,0005.12,0002.78,0002.07
2021-10-16 14:34:00,,0835.0,5.01,0.00,24.9,24.1,00.0,33.9,26.8,10.4,0000.0,0005.05,0002.75,0002.07
2021-10-16 14:35:00,,0835.0,4.99,0.00,24.9,24.1,00.0,33.9,26.8,10.3,0000.0,0005.96,0002.75,0002.08
2021-10-16 14:36:00,,0835.0,5.00,0.00,24.9,24.1,00.0,33.9,26.8,10.4,0000.0,0006.15,0002.75,0002.08
2021-10-16 14:37:00,,0835.0,5.02,0.00,24.9,24.1,00.0,33.9,26.8,10.3,0000.0,0006.60,0002.72,0002.08
2021-10-16 14:38:00,,0835.0,5.00,0.00,24.9,24.1,00.0,33.9,26.8,10.3,0000.0,0006.63,0002.75,0002.12
2021-10-16 14:39:00,,0835.0,4.99,0.00,25.0,24.2,00.0,33.9,26.9,10.4,0000.0,0006.62,0002.78,0002.14
2021-10-16 14:40:00,,0835.0,5.00,0.00,25.0,24.2,00.0,33.9,26.9,10.1,0000.0,0006.22,0002.84,0002.21
2021-10-16 14:41:00,,0835.0,4.99,0.00,25.0,24.2,00.0,33.9,26.9,09.8,0000.0,0006.17,0003.00,0002.35
2021-10-16 14:42:00,,0835.0,5.01,0.00,25.0,24.2,00.0,34.0,26.9,10.0,0000.0,0006.30,0003.11,0002.46
2021-10-16 14:43:00,,0835.0,5.00,0.00,25.0,24.2,00.0,34.0,26.9,10.1,0000.0,0006.31,0003.16,0002.54
2021-10-16 14:44:00,,0834.9,5.00,0.00,25.0,24.2,00.0,34.0,26.9,10.2,0000.0,0006.58,0003.22,0002.64
2021-10-16 14:45:00,,0835.0,4.99,0.00,25.0,24.2,00.0,34.0,27.0,10.1,0000.0,0006.92,0003.29,0002.74
2021-10-16 14:46:00,,0835.0,5.00,0.00,25.1,24.2,00.0,34.0,27.0,10.1,0000.0,0006.38,0003.36,0002.87
2021-10-16 14:47:00,,0835.0,4.99,0.00,25.1,24.3,00.0,34.0,27.0,09.9,0000.0,0007.19,0003.43,0002.99
2021-10-16 14:48:00,,0835.0,5.01,0.00,25.1,24.3,00.0,34.0,27.0,10.0,0000.0,0007.01,0003.48,0003.09
2021-10-16 14:49:00,,0835.0,5.00,0.00,25.1,24.3,00.0,34.1,27.0,10.0,0000.0,0007.66,0003.55,0003.14
2021-10-16 14:50:00,,0835.0,5.00,0.00,25.1,24.3,00.0,34.1,27.0,10.3,0000.0,0007.96,0003.58,0003.18
2021-10-16 14:51:00,,0835.0,5.01,0.00,25.1,24.4,00.0,34.1,27.0,10.4,0000.0,0008.07,0003.59,0003.18
2021-10-16 14:52:00,,0835.0,5.00,0.00,25.1,24.4,00.0,34.1,27.0,10.3,0000.0,0008.21,0003.54,0003.13
2021-10-16 14:53:00,,0835.0,4.99,0.00,25.2,24.4,00.0,34.1,27.1,10.1,0000.0,0008.10,0003.50,0003.11
2021-10-16 14:54:00,,0835.0,5.01,0.00,25.2,24.4,00.0,34.1,27.1,10.4,0000.0,0008.52,0003.49,0003.09
2021-10-16 14:55:00,,0835.0,5.01,0.00,25.2,24.4,00.0,34.1,27.1,10.6,0000.0,0008.67,0003.49,0003.06
2021-10-16 14:56:00,,0835.0,5.00,0.00,25.2,24.4,00.0,34.2,27.1,10.6,0000.0,0008.50,0003.47,0003.05
2021-10-16 14:57:00,,0835.0,4.99,0.00,25.2,24.4,00.0,34.2,27.2,10.2,0000.0,0008.36,0003.43,0002.99
2021-10-16 14:58:00,,0835.0,5.02,0.00,25.2,24.5,00.0,34.2,27.2,10.5,0000.0,0008.17,0003.45,0002.94
2021-10-16 14:59:00,,0835.0,5.00,0.00,25.3,24.5,00.0,34.2,27.2,10.4,0000.0,0008.18,0003.45,0002.89
